This is the latest recevied weather packets stored in our database for station/object WS2Z. If no packets are shown the sender has not sent any weather packets the latest 10 day(s).
| Time | Temp. | Humidity | Pressure | Rain* | Wind** | Luminosity | Snow |
|---|---|---|---|---|---|---|---|
| 1778179869 | 30.56° C | 58% | 1015.7 hPa | 0 mm | - | 823 W/m² | - |
| 1778179567 | 30.56° C | 58% | 1015.8 hPa | 0 mm | - | 828 W/m² | - |
| 1778179264 | 31.11° C | 56% | 1015.7 hPa | 0 mm | - | 831 W/m² | - |
| 1778178960 | 30.56° C | 56% | 1016.1 hPa | 0 mm | - | 842 W/m² | - |
| 1778178658 | 30.56° C | 54% | 1016 hPa | 0 mm | - | 848 W/m² | - |
| 1778178354 | 30.56° C | 55% | 1016.1 hPa | 0 mm | - | 852 W/m² | - |
| 1778178050 | 30.56° C | 53% | 1016.1 hPa | 0 mm | - | 863 W/m² | - |
| 1778177747 | 30.56° C | 52% | 1016.3 hPa | 0 mm | - | 866 W/m² | - |
| 1778177443 | 30° C | 57% | 1016.3 hPa | 0 mm | - | 869 W/m² | - |
| 1778177139 | 30.56° C | 53% | 1016.5 hPa | 0 mm | - | 874 W/m² | - |
| 1778176837 | 31.11° C | 56% | 1016.3 hPa | 0 mm | - | 879 W/m² | - |
| 1778176532 | 30.56° C | 59% | 1016.4 hPa | 0 mm | - | 879 W/m² | - |
| 1778176231 | 30° C | 59% | 1016.5 hPa | 0 mm | - | 881 W/m² | - |
| 1778175927 | 30.56° C | 54% | 1016.6 hPa | 0 mm | - | 888 W/m² | - |
| 1778175625 | 31.11° C | 55% | 1016.5 hPa | 0 mm | - | 890 W/m² | - |
| 1778175321 | 31.11° C | 54% | 1016.5 hPa | 0 mm | - | 890 W/m² | - |
| 1778175019 | 30.56° C | 55% | 1016.7 hPa | 0 mm | - | 886 W/m² | - |
| 1778174715 | 30.56° C | 52% | 1016.6 hPa | 0 mm | - | 887 W/m² | - |
| 1778174412 | 31.11° C | 51% | 1016.6 hPa | 0 mm | - | 894 W/m² | - |
| 1778174107 | 31.67° C | 51% | 1016.6 hPa | 0 mm | - | 890 W/m² | - |
| 1778173805 | 31.67° C | 52% | 1016.6 hPa | 0 mm | - | 887 W/m² | - |
| 1778173501 | 30.56° C | 50% | 1016.6 hPa | 0 mm | - | 892 W/m² | - |
| 1778173198 | 30° C | 56% | 1016.6 hPa | 0 mm | - | 884 W/m² | - |
| 1778172894 | 31.11° C | 51% | 1016.6 hPa | 0 mm | - | 883 W/m² | - |
| 1778172590 | 30.56° C | 47% | 1016.8 hPa | 0 mm | - | 886 W/m² | - |
* Rain latest hour (hover to see other rain measurements)
** Current wind speed in m/s (hover to see current wind gust speed)